Tracking 18980 objects as of 22-Feb-2018
HD Live streaming from Space Station
objects crossing your sky now

PALAPA B1

Track PALAPA B1 now!
PALAPA B1 is classified as:


NORAD ID: 14134
Int'l Code: 1983-059C
Perigee: 35,792.9 km
Apogee: 35,845.8 km
Inclination: 14.8 °
Period: 1,437.4 minutes
Semi major axis: 42190 km
RCS: 1.2604 m2 (large)
Launch date: June 18, 1983
Source: Indonesia (INDO)
Launch site: AIR FORCE EASTERN TEST RANGE (AFETR)
aabbcc
Your satellite tracking list
Your tracking list is empty




NASA's NSSDC Master Catalog

Two Line Element Set (TLE):
1 14134U 83059C   18052.70323757 -.00000298 +00000-0 +00000-0 0  9998
2 14134 014.8418 355.2741 0006272 335.5595 027.3897 01.00180472090367
Source of the keplerian elements: AFSPC